FW0099 Weather Reports


Display with metric or nautical units.
time (UTC)temp
F
wind
direction
speed
MPH
gust
MPH
rain 1hr
in
rain 24hr
in
rain mn
in
humidity
%
barometer
mb
20260505182217 51 0.0 0.0 0.00 0.42 0.38 87 1007.4
20260505181217 51 0.0 0.0 0.00 0.42 0.38 87 1007.5
20260505180217 51 0.0 0.0 0.00 0.42 0.38 87 1007.6
20260505175217 51 0.0 0.0 0.00 0.42 0.38 87 1007.6
20260505174217 51 0.0 0.0 0.00 0.42 0.38 87 1007.5
20260505173237 51 0.0 0.0 0.00 0.42 0.38 87 1007.5
20260505172217 51 0.0 0.0 0.00 0.42 0.38 87 1007.5
20260505171237 51 0.0 1.0 0.00 0.42 0.38 87 1007.5
20260505170217 51 0.0 0.0 0.00 0.42 0.38 87 1007.6
20260505165237 51 0.0 2.0 0.00 0.42 0.38 87 1007.6
20260505164237 51 323 0.0 3.0 0.00 0.42 0.38 87 1007.6
20260505163215 51 334 0.0 5.0 0.00 0.42 0.38 87 1007.6
20260505162217 51 0.0 0.0 0.00 0.42 0.38 87 1007.8
20260505161217 52 315 0.0 1.0 0.00 0.42 0.38 86 1007.8
20260505160217 52 0.0 1.0 0.00 0.42 0.38 87 1007.8
20260505153217 52 0.0 0.0 0.00 0.42 0.38 87 1008.0
20260505152216 52 0.0 1.0 0.00 0.42 0.38 87 1008.1
20260505151237 52 0.0 0.0 0.00 0.42 0.38 87 1008.1
20260505150216 52 335 1.0 4.0 0.00 0.42 0.38 87 1008.1
20260505140237 52 0.0 0.0 0.00 0.42 0.38 87 1008.4
20260505130217 51 0.0 1.0 0.00 0.42 0.38 87 1008.9
20260505124236 52 336 0.0 5.0 0.00 0.42 0.38 87 1008.9
20260505123217 52 0.0 1.0 0.00 0.42 0.38 87 1009.0
20260505122217 52 0.0 0.0 0.00 0.42 0.38 88 1009.0
20260505121216 52 356 0.0 7.0 0.00 0.42 0.38 87 1009.0
20260505120237 52 313 0.0 6.0 0.00 0.42 0.38 88 1009.0
20260505115236 52 308 0.0 4.0 0.00 0.41 0.37 89 1009.0
20260505114236 51 0.0 0.0 0.00 0.41 0.37 88 1009.1
20260505113236 51 0.0 0.0 0.00 0.41 0.37 88 1009.1
20260505112216 51 0.0 0.0 0.00 0.41 0.37 89 1009.1
20260505111216 51 0.0 0.0 0.00 0.41 0.37 89 1009.2
20260505110216 51 0.0 0.0 0.00 0.41 0.37 89 1009.3
20260505102216 51 0.0 0.0 0.00 0.41 0.37 89 1009.3
20260505101216 50 0.0 3.0 0.00 0.41 0.37 89 1009.3
20260505100216 50 0.0 0.0 0.00 0.41 0.37 89 1009.4
20260505095216 50 0.0 0.0 0.00 0.41 0.37 89 1009.5
20260505094216 50 0.0 0.0 0.00 0.41 0.37 89 1009.5
20260505093216 50 346 1.0 6.0 0.00 0.41 0.37 89 1009.5
20260505092216 50 0.0 0.0 0.00 0.41 0.37 89 1009.5
20260505091216 50 308 0.0 1.0 0.00 0.41 0.37 89 1009.5
20260505090216 50 324 0.0 7.0 0.00 0.41 0.37 89 1009.5
20260505085216 50 335 0.0 7.0 0.00 0.41 0.37 90 1009.5
20260505084216 50 0.0 0.0 0.00 0.41 0.37 90 1009.5
20260505083217 50 0.0 0.0 0.00 0.41 0.37 90 1009.5
20260505082216 51 319 0.0 1.0 0.00 0.41 0.37 90 1009.5
20260505081216 51 46 0.0 1.0 0.00 0.41 0.37 90 1009.4
20260505080216 51 0.0 0.0 0.00 0.41 0.37 90 1009.4
20260505075216 51 329 2.0 7.0 0.00 0.41 0.37 90 1009.4
20260505074236 51 0.0 1.0 0.00 0.41 0.37 90 1009.3
20260505073216 51 326 1.0 6.0 0.00 0.41 0.37 90 1009.3
20260505072216 51 333 1.0 6.0 0.00 0.41 0.37 90 1009.3
20260505071216 51 324 3.0 7.0 0.00 0.41 0.37 90 1009.3
20260505070236 51 355 0.0 2.0 0.00 0.41 0.37 90 1009.3
20260505065216 51 355 1.0 2.0 0.00 0.41 0.37 90 1009.3
20260505064216 51 47 2.0 3.0 0.00 0.41 0.37 90 1009.4
20260505063216 51 333 1.0 4.0 0.00 0.41 0.37 90 1009.4
20260505062256 51 0.0 0.0 0.00 0.41 0.37 90 1009.5
20260505061216 52 0.0 0.0 0.00 0.41 0.37 90 1009.5
20260505060216 52 326 0.0 6.0 0.00 0.41 0.37 90 1009.5
20260505055216 52 0.0 0.0 0.00 0.41 0.37 90 1009.5
20260505054216 52 0.0 1.0 0.00 0.41 0.37 90 1009.4
20260505053216 52 0.0 0.0 0.00 0.41 0.37 90 1009.4
20260505052216 52 24 1.0 3.0 0.00 0.41 0.37 90 1009.4
20260505051216 53 24 0.0 2.0 0.00 0.41 0.37 90 1009.3
20260505050218 53 0.0 1.0 0.00 0.40 0.37 90 1009.2
20260505041216 53 331 0.0 2.0 0.00 0.40 0.37 90 1009.2
20260505040216 53 0.0 0.0 0.00 0.40 0.37 90 1009.2
20260505035215 54 326 1.0 5.0 0.00 0.40 0.37 90 1009.1
20260505034216 54 5 0.0 2.0 0.00 0.40 0.37 90 1009.2
20260505033215 54 340 0.0 3.0 0.00 0.40 0.37 90 1009.1
20260505032236 55 323 2.0 7.0 0.01 0.40 0.37 90 1009.2
20260505031235 55 331 2.0 6.0 0.02 0.40 0.37 90 1009.2
20260505030236 55 306 1.0 3.0 0.05 0.40 0.37 90 1009.2
20260505025216 56 0.0 0.0 0.10 0.40 0.37 90 1009.3
20260505024236 56 0.0 0.0 0.14 0.40 0.36 90 1009.4
20260505023216 56 0.0 0.0 0.18 0.40 0.36 90 1009.4
20260505022216 56 0.0 0.0 0.24 0.39 0.35 90 1009.3
20260505021216 56 0.0 0.0 0.26 0.38 0.34 90 1009.3
20260505020215 56 0.0 0.0 0.25 0.35 0.31 90 1009.3
20260505015216 56 0.0 0.0 0.21 0.30 0.26 89 1009.3
20260505014236 56 0.0 0.0 0.16 0.26 0.22 89 1009.3
20260505013216 56 0.0 0.0 0.13 0.22 0.18 89 1009.5
20260505012215 56 0.0 0.0 0.07 0.15 0.11 89 1009.6
20260505011216 56 0.0 0.0 0.05 0.12 0.07 89 1009.6
20260505010215 56 0.0 0.0 0.03 0.11 0.06 89 1009.6
20260505005215 56 0.0 0.0 0.03 0.10 0.05 89 1009.7
20260505004255 56 0.0 0.0 0.03 0.10 0.05 89 1009.8
20260505003216 56 0.0 0.0 0.03 0.09 0.04 89 1009.8
20260505002215 56 0.0 0.0 0.01 0.07 0.03 89 1010.0
20260505001215 56 0.0 0.0 0.00 0.07 0.02 89 1010.1
20260505000215 56 0.0 0.0 0.00 0.07 0.02 89 1010.1
20260504235215 56 0.0 0.0 0.00 0.07 0.02 89 1010.2
20260504234215 56 0.0 0.0 0.00 0.07 0.02 89 1010.1
20260504233215 56 0.0 0.0 0.00 0.06 0.01 89 1010.3
20260504232215 56 0.0 0.0 0.00 0.06 0.01 89 1010.3
20260504231215 56 0.0 0.0 0.00 0.06 0.01 89 1010.5
20260504230215 56 0.0 0.0 0.01 0.06 0.01 89 1010.6
20260504225215 56 0.0 0.0 0.01 0.06 0.01 89 1010.7
20260504224255 56 0.0 0.0 0.02 0.06 0.01 89 1010.7
20260504223215 56 0.0 0.0 0.03 0.06 0.01 89 1010.8
20260504222215 56 0.0 0.0 0.02 0.05 0.00 88 1010.8
20260504221215 56 0.0 0.0 0.02 0.05 0.00 88 1010.8
20260504220255 56 0.0 0.0 0.01 0.04 0.00 88 1011.0
20260504215235 56 0.0 0.0 0.01 0.04 0.04 88 1011.1
20260504214215 56 0.0 0.0 0.00 0.03 0.03 88 1011.1
20260504213315 56 0.0 0.0 0.00 0.03 0.03 88 1011.2
20260504212215 56 0.0 0.0 0.00 0.03 0.03 87 1011.3
20260504211215 56 0.0 0.0 0.00 0.03 0.03 87 1011.3
20260504210215 56 0.0 0.0 0.00 0.03 0.03 87 1011.3
20260504205215 56 0.0 0.0 0.00 0.03 0.03 87 1011.4
20260504204215 56 0.0 0.0 0.00 0.03 0.03 87 1011.4
20260504203215 57 0.0 0.0 0.00 0.03 0.03 86 1011.4
20260504202215 57 0.0 0.0 0.00 0.02 0.02 86 1011.4
20260504201215 57 0.0 0.0 0.00 0.02 0.02 86 1011.3
20260504200215 57 0.0 0.0 0.01 0.02 0.02 86 1011.2
20260504195255 58 0.0 0.0 0.01 0.02 0.02 85 1011.2
20260504194215 58 180 0.0 3.0 0.01 0.02 0.02 85 1011.1
20260504193215 58 162 1.0 2.0 0.01 0.03 0.02 85 1011.1
20260504192215 59 162 0.0 2.0 0.00 0.02 0.01 84 1011.1
20260504191215 59 178 1.0 3.0 0.00 0.02 0.01 83 1011.1
20260504190215 59 0.0 0.0 0.00 0.01 0.00 82 1011.0
20260504185215 60 0.0 1.0 0.00 0.01 0.00 82 1011.1
20260504184215 60 242 1.0 3.0 0.00 0.02 0.00 82 1011.0
20260504183215 60 0.0 0.0 0.00 0.03 0.00 80 1011.0